Wind_Speed
18 18 18 11 3 3 8 6 5 5 4 1 4 7 3 1 1 2 3 2 5 5 6 9 8 6 7 8 10 10 10 11 12 10 9 9 10 10 9 9 10 10 10 11 11 9 7 6 6
17 16 14 11 4 5 8 13 12 11 8 2 7 6 1 0 1 2 8 4 7 5 7 8 5 6 7 9 8 10 11 12 12 12 12 11 10 10 10 10 9 9 9 10 10 10 9 8 9
17 15 13 10 3 4 11 13 13 10 10 8 9 8 10 8 3 3 7 3 4 6 6 4 5 6 7 9 9 11 13 13 14 14 14 12 13 13 13 12 10 10 9 8 8 9 9 9 9
15 14 12 5 4 5 9 9 7 9 9 11 10 9 13 11 7 4 4 4 2 1 3 5 7 10 9 7 7 10 11 13 15 15 15 14 15 16 17 17 15 12 11 9 9 8 8 8 8
12 13 9 6 4 4 6 7 7 4 5 11 14 12 8 6 6 5 5 4 2 2 6 7 6 5 3 4 5 6 6 7 9 11 12 13 14 16 17 16 15 14 12 11 11 11 10 9 7
13 13 10 8 13 14 13 10 9 12 11 11 12 10 9 6 7 7 6 3 2 5 7 8 8 5 3 2 4 7 9 10 12 13 14 16 17 16 16 17 16 15 14 13 11 11 12 12 11
16 16 14 6 15 15 11 8 11 11 15 16 16 10 10 9 8 7 7 4 2 3 5 6 7 8 9 9 8 9 10 13 15 18 20 20 20 19 18 18 18 16 14 14 13 12 12 13 12
17 18 18 6 9 9 12 8 12 14 15 14 14 8 7 9 9 9 8 4 3 4 1 2 3 4 7 10 11 12 13 15 17 19 21 23 24 23 23 20 18 17 18 18 17 15 14 14 15
15 14 14 6 9 12 13 10 10 15 18 18 19 15 6 12 12 10 9 7 6 6 5 5 4 5 8 10 11 12 13 14 15 17 20 22 23 24 24 24 22 22 21 20 19 17 16 17 17
14 16 15 10 12 16 14 15 15 18 20 20 19 19 16 14 14 13 10 9 8 8 7 7 8 8 9 10 11 12 13 16 16 17 20 22 23 25 25 25 25 23 22 22 21 19 18 18 17
14 15 19 13 12 15 18 21 18 18 19 17 18 21 22 19 17 16 13 11 11 10 10 11 10 11 12 13 14 15 16 18 21 24 26 28 27 26 24 24 25 24 22 21 21 22 22 22 20
15 15 18 16 15 19 22 23 22 19 20 17 19 21 23 23 21 19 17 15 14 15 14 14 14 15 17 18 19 21 23 23 26 30 32 34 33 31 28 27 26 26 26 26 25 24 24 23 23
15 18 19 18 17 21 22 23 23 22 23 20 18 15 22 25 24 22 21 20 20 18 18 18 19 20 22 24 24 26 28 30 32 35 36 37 34 31 30 28 28 28 28 28 26 26 25 25 26
16 17 19 17 17 19 21 22 24 22 22 21 22 22 23 25 24 25 24 25 23 22 22 23 24 26 27 28 30 29 32 34 37 39 38 36 33 32 31 33 33 32 31 30 29 28 28 28 29
15 17 20 20 19 22 20 26 28 19 24 24 25 25 27 26 26 26 26 29 27 24 25 28 29 29 30 32 34 34 35 37 40 39 37 35 35 35 37 38 37 35 34 33 33 32 33 33 34
15 18 22 18 20 20 20 29 22 20 25 20 24 25 27 27 26 27 29 28 27 26 27 30 32 33 33 35 36 37 37 39 38 36 35 35 36 38 39 39 41 41 41 40 38 38 37 38 39
18 19 20 20 20 18 22 25 20 21 26 23 23 24 27 28 28 29 28 26 27 27 28 30 32 33 33 35 35 36 36 35 34 34 33 35 36 37 37 39 40 41 41 41 42 43 45 47 48
21 19 16 16 21 25 28 30 28 19 24 23 23 25 27 27 27 27 28 27 25 28 29 31 31 32 31 33 33 33 33 33 33 32 33 34 36 37 38 39 39 40 40 41 43 45 48 50 54
11 12 15 13 11 23 24 31 27 26 29 29 29 30 29 29 24 26 27 27 29 29 31 32 31 30 30 31 31 31 32 31 32 31 33 34 35 37 38 39 40 40 43 45 47 50 53 55 56
18 24 27 25 22 19 24 38 32 31 34 28 27 28 29 28 30 31 30 30 30 29 31 34 32 30 30 30 29 29 29 31 31 32 33 34 36 37 38 38 40 42 44 47 50 53 55 57 57
23 26 27 25 20 18 22 38 36 33 27 27 27 26 29 29 30 30 28 26 28 29 30 31 30 30 27 27 26 28 30 29 30 32 34 36 38 38 38 39 42 44 47 50 53 54 51 51 47
30 28 27 24 25 22 23 28 23 15 21 23 23 23 18 21 24 25 24 22 20 23 28 29 28 23 23 23 26 28 29 29 30 32 35 37 37 37 38 41 43 46 49 50 49 46 45 44 46
30 25 24 23 29 29 29 15 25 13 24 26 24 17 17 14 16 21 23 17 19 24 27 26 21 23 23 24 26 28 28 29 30 32 34 35 36 37 39 42 44 47 47 43 39 38 39 41 44
25 21 22 22 21 14 25 19 56 34 34 26 21 24 19 13 14 20 22 23 20 22 25 22 21 22 25 27 29 28 28 29 31 33 34 35 36 37 39 42 43 43 39 34 33 35 36 38 40
26 26 6 6 6 12 22 22 49 25 17 18 18 15 19 18 26 22 23 21 19 21 22 23 23 24 27 27 29 28 29 30 32 33 34 35 36 38 40 41 41 37 32 31 32 34 34 35 37
40 38 20 8 6 12 27 17 33 31 25 28 27 28 23 27 28 25 23 20 20 20 22 24 25 27 28 30 28 27 28 30 33 33 33 34 37 38 40 40 37 31 29 29 32 33 31 33 35
39 45 45 35 28 11 23 35 38 20 22 23 28 34 27 21 25 21 19 18 19 23 23 24 26 28 29 30 27 27 27 29 32 34 34 36 37 38 40 39 33 28 28 30 31 32 31 33 35
40 30 20 29 6 7 18 27 24 23 32 29 32 27 24 23 23 18 20 19 21 22 23 25 26 27 28 26 26 26 27 29 31 32 34 36 37 38 39 35 31 28 29 31 32 31 31 33 34
40 42 23 25 29 7 9 12 26 30 33 32 26 25 25 27 27 21 22 24 25 26 25 25 27 26 26 25 26 26 28 29 31 31 33 35 35 37 37 34 30 29 30 31 32 31 31 33 33
43 48 55 28 10 31 37 39 38 27 22 24 24 21 25 22 28 26 23 26 32 31 28 27 27 25 25 25 26 27 28 30 30 31 33 34 35 37 36 32 30 30 30 31 32 31 30 32 32
Wind_Direction
163 156 162 162 130 112 132 133 185 159 189 291 266 272 317 308 343 127 172 131 67 62 3 358 9 23 37 36 30 31 35 34 28 21 16 19 13 11 5 6 358 357 0 0 360 0 354 348 358
168 172 174 176 172 151 141 162 185 183 144 172 281 229 189 215 209 207 185 179 191 222 323 0 9 43 50 38 23 24 25 32 29 30 22 12 8 4 358 355 353 349 348 348 348 350 346 338 341
175 174 178 202 35 135 163 188 199 186 169 168 260 267 272 306 268 230 243 322 324 319 357 9 65 52 45 42 21 23 22 20 20 19 17 20 15 6 356 346 341 337 334 333 333 331 338 336 331
181 181 193 198 90 107 201 199 215 186 183 194 224 245 256 260 248 233 260 323 16 296 38 66 81 81 64 64 26 360 7 8 3 1 360 359 354 352 353 353 347 336 332 329 324 321 322 328 332
177 183 189 222 270 253 220 230 213 168 214 215 236 235 245 226 212 205 238 270 81 50 46 52 60 112 127 1 359 350 344 346 347 344 348 350 345 343 344 347 357 353 336 327 323 315 314 316 314
191 194 196 200 231 244 258 238 207 173 233 240 245 249 248 222 203 190 220 223 42 42 43 53 61 64 55 11 348 342 346 345 346 346 345 345 341 346 350 354 354 359 356 352 340 328 320 314 311
203 205 201 264 201 221 252 243 193 189 227 245 239 234 228 224 211 194 210 195 307 65 57 56 63 47 43 39 27 11 6 1 358 353 348 346 344 343 342 345 343 346 350 349 347 342 335 327 323
206 213 216 261 231 256 272 243 206 206 232 245 245 237 209 225 219 203 206 207 246 293 124 69 44 26 9 1 355 350 355 351 345 344 343 340 338 335 330 331 327 329 330 332 330 332 331 332 332
206 203 201 225 244 259 269 268 259 240 226 237 252 251 240 218 223 221 221 222 245 270 288 296 300 324 334 337 332 331 334 333 334 335 336 333 331 328 323 320 318 316 316 315 316 313 315 323 326
207 213 203 232 234 245 258 261 266 250 244 244 250 251 234 225 229 238 228 248 253 264 266 274 288 299 309 312 318 316 321 322 324 326 331 328 327 328 322 318 313 310 309 306 308 302 303 307 304
216 218 209 214 244 253 267 277 272 252 251 253 249 251 242 237 243 245 243 238 257 264 264 263 266 282 290 303 304 307 312 315 315 317 322 326 327 328 325 319 314 310 308 306 302 299 297 293 290
224 228 231 230 240 259 270 275 276 263 263 257 246 246 244 245 246 251 251 253 256 261 263 263 268 275 282 292 298 302 306 309 312 315 322 325 325 325 324 322 320 315 309 306 301 298 296 295 288
234 242 244 253 255 260 268 271 273 267 273 269 263 250 246 246 247 251 254 255 258 263 269 268 268 270 275 282 289 295 301 305 311 315 319 321 322 322 320 318 318 315 310 305 301 298 297 296 293
239 243 255 262 267 266 268 273 268 266 268 271 264 258 256 255 253 252 256 261 260 266 272 273 269 270 272 279 286 291 296 301 307 311 315 318 319 319 318 318 318 316 310 306 303 300 297 294 291
253 257 266 266 272 270 269 265 270 273 264 263 260 258 260 262 261 264 264 265 270 271 271 272 274 277 278 281 286 290 295 300 305 308 314 317 317 318 317 316 316 313 309 306 304 302 301 298 296
248 255 260 269 275 274 268 271 274 258 260 254 255 256 259 261 264 262 264 269 275 277 276 274 276 280 281 284 288 292 296 299 303 309 313 313 314 315 316 318 316 313 312 310 308 304 300 297 295
244 253 267 279 273 272 278 285 283 266 262 260 256 255 257 257 257 261 266 271 275 277 277 275 275 279 283 287 289 291 294 298 303 307 308 310 311 313 315 314 313 313 312 311 309 306 304 302 299
251 253 266 272 279 273 272 282 290 281 270 266 261 259 258 259 259 260 265 268 269 276 277 276 277 278 285 286 287 289 293 298 301 304 307 308 311 315 314 313 313 311 310 308 306 305 304 303 300
223 243 269 256 282 266 271 278 280 287 280 275 268 265 266 263 260 254 257 263 270 274 277 277 275 277 279 282 284 288 293 297 300 303 305 309 312 312 313 313 313 312 310 310 309 306 303 299 296
255 250 254 256 274 272 274 277 282 279 279 277 272 263 259 258 257 256 260 267 272 273 272 273 277 276 277 280 283 287 293 297 298 302 306 309 310 312 313 314 312 310 310 308 305 302 301 300 299
254 253 257 268 279 258 268 270 272 278 270 268 262 261 256 252 255 262 264 266 269 270 269 269 270 269 274 276 283 289 293 295 298 304 308 310 312 313 314 312 311 310 309 308 308 307 306 306 307
247 249 254 264 260 269 266 281 268 243 262 267 269 270 262 252 255 259 266 269 267 262 261 264 265 266 268 278 288 290 293 293 301 304 307 310 310 313 312 311 311 311 311 312 313 314 314 312 310
258 262 258 255 247 262 251 270 284 272 271 271 276 265 257 249 253 265 272 264 263 259 263 264 261 268 278 283 294 292 290 295 301 303 307 308 311 312 310 311 312 314 314 314 314 314 312 316 316
249 242 244 246 249 255 249 248 278 273 285 282 256 244 253 239 270 274 272 271 260 256 261 260 263 278 283 286 295 293 292 296 300 304 307 310 311 310 311 312 314 314 313 312 312 316 314 317 316
230 226 228 243 200 240 253 242 260 273 276 262 257 234 246 276 282 274 278 269 259 258 254 262 270 283 289 290 295 293 295 299 301 306 308 309 308 310 312 314 314 313 311 312 315 314 312 313 312
234 224 207 204 210 259 254 238 257 270 269 239 262 267 266 272 271 273 272 266 257 261 265 272 274 282 287 292 294 293 296 298 303 305 306 307 309 311 313 315 314 310 314 316 311 313 312 313 312
234 223 240 240 254 281 258 258 261 257 249 247 250 274 270 265 273 257 261 255 264 272 274 274 276 282 284 291 291 291 295 300 302 305 307 308 311 312 315 317 309 311 321 317 312 315 317 312 312
230 244 212 220 216 227 249 248 242 258 262 257 262 262 253 261 264 249 245 266 284 278 272 275 279 279 283 286 287 291 296 298 301 303 306 308 311 314 317 314 311 317 323 319 315 314 317 312 313
227 228 224 230 223 194 256 245 265 264 253 251 250 258 251 250 249 251 246 269 287 284 281 281 279 279 283 285 288 293 297 299 300 304 305 308 312 314 316 313 312 318 319 317 315 313 316 310 309
248 244 231 216 230 234 248 255 258 265 241 244 246 247 248 254 243 253 252 273 292 288 283 282 279 280 280 286 290 295 298 299 301 302 304 309 312 317 316 313 313 313 316 315 314 311 309 308 310
Height
3201 3203 3204 3206 3210 3207 3208 3210 3210 3211 3211 3212 3211 3211 3211 3211 3211 3215 3212 3210 3211 3210 3210 3208 3208 3207 3207 3206 3205 3205 3204 3204 3203 3203 3203 3202 3202 3201 3200 3200 3199 3198 3197 3196 3196 3195 3195 3195 3194
3201 3203 3205 3206 3207 3206 3208 3209 3209 3211 3212 3211 3211 3212 3212 3211 3211 3211 3211 3209 3210 3209 3208 3208 3208 3207 3207 3206 3205 3205 3205 3204 3204 3204 3203 3203 3202 3202 3201 3200 3199 3198 3197 3196 3196 3195 3195 3195 3194
3201 3203 3205 3205 3205 3205 3206 3208 3209 3211 3212 3211 3209 3211 3210 3211 3210 3210 3208 3207 3208 3208 3207 3208 3207 3207 3207 3207 3206 3205 3205 3205 3205 3204 3204 3203 3202 3202 3201 3200 3198 3197 3197 3195 3195 3194 3194 3195 3194
3201 3203 3206 3205 3204 3205 3205 3206 3209 3210 3210 3209 3209 3210 3210 3209 3209 3209 3208 3207 3208 3207 3207 3207 3206 3206 3207 3206 3207 3206 3205 3205 3205 3204 3204 3203 3203 3202 3201 3200 3198 3197 3196 3195 3194 3193 3193 3193 3194
3200 3202 3203 3204 3204 3204 3205 3207 3207 3207 3208 3207 3207 3209 3208 3207 3207 3208 3207 3207 3209 3207 3206 3205 3205 3206 3206 3206 3206 3205 3204 3204 3203 3203 3202 3202 3201 3200 3199 3198 3197 3196 3194 3194 3193 3192 3192 3192 3192
3200 3201 3202 3203 3203 3202 3203 3205 3206 3206 3205 3205 3205 3207 3206 3206 3206 3207 3206 3206 3206 3206 3205 3205 3205 3205 3204 3205 3205 3205 3204 3204 3203 3203 3203 3203 3201 3200 3199 3197 3196 3195 3194 3192 3192 3191 3190 3190 3190
3198 3199 3200 3202 3201 3200 3202 3203 3204 3204 3204 3203 3203 3203 3204 3204 3204 3205 3205 3205 3204 3206 3205 3205 3204 3204 3204 3205 3205 3204 3204 3203 3202 3202 3201 3200 3199 3199 3198 3197 3195 3194 3193 3192 3191 3190 3189 3188 3188
3196 3198 3199 3201 3200 3200 3199 3201 3202 3202 3201 3200 3200 3200 3202 3202 3202 3203 3204 3204 3204 3203 3204 3204 3203 3204 3204 3204 3203 3203 3203 3203 3202 3201 3200 3199 3198 3197 3196 3195 3194 3192 3191 3190 3189 3188 3187 3186 3185
3194 3196 3197 3198 3198 3197 3197 3199 3200 3199 3199 3198 3197 3199 3201 3200 3200 3201 3202 3203 3203 3202 3202 3203 3204 3203 3203 3203 3203 3202 3202 3202 3202 3201 3200 3198 3197 3195 3194 3193 3192 3191 3189 3188 3187 3186 3184 3183 3181
3192 3193 3195 3196 3196 3195 3196 3197 3197 3196 3196 3196 3196 3196 3198 3198 3198 3198 3200 3200 3201 3201 3201 3201 3201 3201 3202 3202 3202 3200 3200 3199 3199 3199 3198 3196 3195 3193 3191 3189 3188 3187 3186 3185 3184 3183 3181 3180 3179
3189 3191 3192 3193 3194 3194 3194 3192 3194 3192 3192 3193 3194 3193 3194 3195 3195 3195 3197 3199 3198 3199 3199 3199 3200 3199 3199 3199 3199 3198 3197 3196 3195 3195 3194 3192 3190 3189 3186 3185 3183 3182 3182 3181 3179 3178 3177 3176 3175
3187 3188 3189 3191 3193 3191 3190 3189 3188 3188 3188 3190 3191 3190 3191 3191 3192 3192 3193 3195 3196 3196 3196 3196 3196 3196 3196 3196 3195 3194 3193 3191 3190 3189 3188 3186 3184 3183 3181 3179 3178 3176 3175 3174 3173 3171 3170 3170 3169
3184 3184 3186 3187 3189 3188 3186 3185 3185 3184 3184 3186 3187 3188 3187 3187 3189 3189 3190 3191 3192 3193 3193 3193 3193 3192 3192 3191 3191 3189 3188 3186 3185 3183 3182 3180 3178 3177 3175 3174 3172 3170 3169 3168 3166 3165 3164 3163 3163
3180 3180 3181 3182 3183 3183 3182 3181 3180 3181 3180 3181 3181 3183 3183 3183 3185 3185 3186 3186 3189 3189 3189 3189 3188 3188 3188 3186 3185 3185 3183 3181 3179 3177 3176 3174 3172 3170 3168 3166 3164 3163 3161 3159 3158 3157 3156 3155 3154
3178 3179 3177 3178 3179 3178 3177 3175 3173 3178 3176 3177 3176 3177 3177 3178 3179 3180 3181 3180 3183 3185 3186 3185 3184 3184 3183 3182 3180 3179 3178 3175 3173 3171 3169 3167 3164 3162 3160 3158 3156 3155 3153 3151 3149 3148 3147 3146 3145
3175 3174 3172 3174 3173 3173 3172 3168 3172 3171 3170 3172 3172 3172 3172 3173 3174 3174 3174 3175 3176 3178 3179 3179 3178 3177 3177 3176 3174 3173 3171 3168 3167 3165 3163 3160 3158 3156 3152 3149 3146 3143 3141 3139 3139 3138 3137 3136 3135
3170 3168 3168 3168 3167 3167 3166 3164 3166 3166 3165 3166 3166 3166 3166 3167 3167 3168 3169 3170 3169 3170 3172 3172 3171 3170 3170 3168 3168 3166 3164 3163 3161 3159 3157 3155 3152 3149 3146 3143 3140 3136 3133 3131 3128 3125 3122 3119 3118
3165 3164 3164 3164 3164 3160 3160 3157 3158 3160 3159 3160 3159 3159 3158 3160 3162 3163 3163 3163 3164 3163 3164 3164 3164 3163 3163 3161 3161 3159 3158 3157 3155 3153 3151 3149 3145 3142 3139 3136 3133 3129 3126 3124 3120 3117 3113 3109 3105
3162 3161 3160 3160 3159 3156 3155 3151 3154 3153 3151 3150 3151 3151 3151 3152 3157 3155 3156 3157 3157 3158 3156 3156 3156 3157 3157 3156 3155 3153 3152 3150 3148 3147 3145 3142 3138 3135 3131 3127 3123 3120 3117 3113 3109 3106 3102 3099 3095
3158 3157 3155 3156 3155 3153 3151 3143 3146 3146 3142 3144 3144 3143 3143 3144 3146 3147 3149 3150 3150 3151 3150 3148 3148 3149 3150 3149 3148 3147 3146 3144 3142 3140 3137 3134 3131 3127 3123 3119 3116 3112 3108 3105 3100 3095 3091 3086 3081
3152 3152 3153 3154 3152 3149 3147 3136 3138 3139 3135 3133 3133 3134 3135 3135 3137 3138 3141 3143 3144 3143 3142 3142 3141 3142 3143 3143 3142 3141 3139 3137 3135 3132 3128 3125 3121 3118 3114 3111 3107 3103 3098 3094 3088 3083 3078 3072 3068
3146 3149 3149 3150 3149 3144 3145 3126 3129 3132 3131 3128 3128 3127 3128 3128 3130 3131 3133 3135 3137 3136 3135 3134 3134 3135 3136 3137 3136 3134 3132 3130 3127 3124 3121 3117 3114 3111 3107 3103 3098 3093 3088 3082 3076 3070 3065 3060 3055
3140 3144 3144 3144 3142 3139 3136 3136 3114 3123 3122 3123 3122 3122 3123 3123 3124 3125 3127 3129 3130 3128 3127 3127 3128 3128 3129 3129 3128 3127 3125 3123 3121 3117 3114 3111 3107 3103 3099 3093 3089 3083 3077 3071 3067 3062 3057 3053 3045
3137 3138 3139 3138 3137 3131 3126 3134 3095 3112 3113 3112 3113 3114 3117 3118 3119 3119 3120 3121 3122 3122 3121 3121 3122 3122 3122 3122 3120 3119 3117 3115 3112 3109 3106 3102 3098 3095 3090 3085 3079 3074 3068 3063 3058 3053 3048 3044 3038
3130 3132 3134 3133 3131 3117 3119 3121 3096 3106 3108 3108 3108 3110 3111 3112 3112 3112 3113 3114 3115 3115 3115 3116 3116 3115 3115 3114 3112 3111 3108 3106 3104 3100 3097 3094 3090 3085 3081 3076 3070 3064 3059 3054 3049 3045 3039 3034 3029
3116 3120 3121 3126 3122 3110 3111 3101 3092 3099 3101 3102 3103 3106 3106 3107 3106 3106 3107 3108 3109 3109 3110 3110 3109 3108 3107 3106 3104 3103 3101 3098 3095 3092 3089 3086 3081 3077 3072 3067 3060 3055 3051 3046 3042 3037 3032 3026 3020
3107 3105 3109 3109 3106 3106 3096 3092 3091 3095 3096 3097 3097 3097 3098 3099 3099 3100 3100 3101 3102 3103 3102 3102 3102 3101 3100 3098 3097 3095 3093 3091 3087 3083 3080 3077 3072 3068 3063 3057 3052 3047 3042 3038 3033 3027 3022 3017 3013
3099 3101 3103 3104 3103 3103 3080 3078 3076 3083 3085 3088 3088 3089 3091 3092 3092 3093 3093 3095 3096 3096 3095 3095 3094 3093 3092 3091 3090 3088 3086 3083 3080 3076 3073 3068 3064 3059 3053 3048 3042 3038 3033 3029 3024 3019 3014 3009 3004
3091 3090 3091 3090 3086 3083 3077 3067 3069 3071 3075 3079 3081 3083 3084 3085 3085 3086 3087 3088 3088 3088 3088 3087 3086 3085 3084 3083 3081 3080 3078 3075 3072 3068 3065 3061 3056 3051 3046 3040 3034 3030 3026 3022 3017 3012 3007 3001 2996
3080 3076 3077 3075 3073 3074 3067 3049 3064 3067 3069 3072 3073 3074 3076 3078 3078 3078 3079 3079 3079 3079 3079 3078 3077 3077 3076 3075 3073 3072 3069 3066 3063 3061 3057 3053 3048 3044 3037 3031 3027 3023 3019 3014 3009 3004 3000 2995 2989